SKYSAT-C5

Last updated on Thu Oct 30 2025 00:02:31 GMT+0000 (Coordinated Universal Time)

1 41772U 16058C 25302.37971333 .00014827 00000+0 42224-3 0 9997 2 41772 97.0831 347.8425 0003298 202.6649 157.4451 15.36188271508355
UTC large
Height (km)
Speed (km/s)
/
Latitude / Longitude
Inclination (degrees)
Orbital Period (minutes)
Azimuth
Elevation
Range (km)
Doppler Factor

Next 0 passes for location: London (51.5072 / 0.1276)

Sorry there are no passes over London.